This is the latest recevied weather packets stored in our database for station/object BARLOW-WX. If no packets are shown the sender has not sent any weather packets the latest 10 day(s).
| Time | Temp. | Humidity | Pressure | Rain* | Wind** | Luminosity | Snow |
|---|---|---|---|---|---|---|---|
| 1777719708 | -0.56° C | 88% | 990.8 hPa | 0 mm | - | - | - |
| 1777718778 | -0.56° C | 86% | 990.6 hPa | 0 mm | - | - | - |
| 1777717897 | -0.56° C | 87% | 990.9 hPa | 0 mm | - | - | - |
| 1777716978 | -0.56° C | 87% | 990.9 hPa | 0 mm | - | - | - |
| 1777716108 | -0.56° C | 87% | 990.9 hPa | 0 mm | - | - | - |
| 1777713378 | 0° C | 85% | 990.4 hPa | 0 mm | - | - | - |
| 1777712508 | 0° C | 85% | 990.4 hPa | 0 mm | - | - | - |
| 1777711577 | 0° C | 83% | 990 hPa | 0 mm | - | - | - |
| 1777710697 | 0° C | 82% | 990.2 hPa | 0 mm | - | - | - |
| 1777709779 | 0° C | 82% | 990.2 hPa | 0 mm | - | - | - |
| 1777708912 | 0° C | 82% | 990.2 hPa | 0 mm | - | - | - |
| 1777707978 | 0° C | 77% | 989.5 hPa | 0 mm | - | - | - |
| 1777707092 | 0° C | 77% | 989.5 hPa | 0 mm | - | - | - |
| 1777706178 | 0° C | 77% | 989.5 hPa | 0 mm | - | - | - |
| 1777705309 | 0° C | 77% | 989.5 hPa | 0 mm | - | - | - |
| 1777704379 | 0° C | 74% | 990.7 hPa | 0 mm | - | - | - |
| 1777703498 | 0° C | 75% | 990.7 hPa | 0 mm | - | - | - |
| 1777702578 | 0° C | 75% | 990.6 hPa | 0 mm | - | - | - |
| 1777701725 | 0.56° C | 75% | 990.6 hPa | 0 mm | - | - | - |
| 1777700778 | 0.56° C | 72% | 989.8 hPa | 0 mm | - | - | - |
| 1777699897 | 0.56° C | 73% | 990.2 hPa | 0 mm | - | - | - |
| 1777698978 | 0.56° C | 73% | 990.2 hPa | 0 mm | - | - | - |
| 1777698109 | 1.11° C | 73% | 990.2 hPa | 0 mm | - | - | - |
| 1777697179 | 1.11° C | 70% | 989.7 hPa | 0 mm | - | - | - |
| 1777696297 | 1.11° C | 71% | 989.9 hPa | 0 mm | - | - | - |
* Rain latest hour (hover to see other rain measurements)
** Current wind speed in m/s (hover to see current wind gust speed)